FW1989 Weather Reports


Display with metric or nautical units.
time (UTC)temp
F
wind
direction
speed
MPH
gust
MPH
rain 1hr
in
rain 24hr
in
rain mn
in
humidity
%
barometer
mb
20260906073030 67 49 3.0 7.0 0.00 0.01 0.00 92 1013.1
20260906071532 67 63 5.0 10.0 0.00 0.01 0.00 92 1013.0
20260906070028 68 67 4.0 9.0 0.00 0.01 0.00 92 1012.9
20260906064529 68 67 5.0 9.0 0.00 0.01 0.00 93 1013.1
20260906063026 67 53 4.0 6.0 0.00 0.01 0.00 93 1013.1
20260906061525 67 53 4.0 5.0 0.00 0.01 0.00 93 1013.1
20260906060026 68 46 3.0 6.0 0.00 0.01 0.00 93 1013.1
20260906054523 68 52 3.0 5.0 0.00 0.01 0.00 92 1012.9
20260906053023 68 59 4.0 6.0 0.00 0.01 0.00 92 1012.8
20260906051518 69 76 3.0 7.0 0.00 0.01 0.00 90 1012.8
20260906050016 70 105 5.0 9.0 0.00 0.01 0.00 90 1012.5
20260906044510 70 93 6.0 11.0 0.00 0.01 0.00 91 1012.4
20260906043010 70 71 5.0 12.0 0.00 0.01 0.00 90 1012.3
20260906041504 71 94 8.0 11.0 0.00 0.01 0.00 90 1012.1
20260906040002 71 103 6.0 13.0 0.00 0.01 0.00 90 1012.1
20260906034501 72 107 11.0 16.0 0.00 0.01 0.01 90 1012.3
20260906033001 72 69 11.0 19.0 0.00 0.01 0.01 90 1012.3
20260906031627 72 93 6.0 13.0 0.00 0.01 0.01 91 1012.3
20260906030058 73 77 10.0 16.0 0.00 0.01 0.01 90 1012.0
20260906024559 74 73 7.0 15.0 0.00 0.01 0.01 89 1011.8
20260906023153 74 90 6.0 16.0 0.00 0.01 0.01 89 1011.6
20260906021554 74 74 9.0 16.0 0.00 0.01 0.01 91 1011.4
20260906020058 75 55 10.0 15.0 0.00 0.01 0.01 92 1011.3
20260906014552 75 80 4.0 8.0 0.01 0.01 0.01 91 1011.0
20260906013051 76 74 4.0 12.0 0.01 0.01 0.01 90 1010.9
20260906011553 76 86 9.0 16.0 0.01 0.01 0.01 90 1010.6
20260906010050 77 71 11.0 15.0 0.01 0.01 0.01 88 1010.5
20260906004556 78 64 6.0 12.0 0.00 0.00 0.00 89 1010.3
20260906003052 78 68 6.0 11.0 0.00 0.00 0.00 87 1010.0
20260906001549 78 44 5.0 10.0 0.00 0.00 0.00 85 1009.8
20260906000055 80 26 7.0 12.0 0.00 0.00 0.00 81 1009.9
20260905234547 80 16 5.0 9.0 0.00 0.00 0.00 81 1009.9
20260905233050 81 338 10.0 16.0 0.00 0.00 0.00 78 1009.6
20260905231548 82 355 9.0 15.0 0.00 0.00 0.00 78 1009.4
20260905230045 83 360 8.0 12.0 0.00 0.00 0.00 79 1009.3
20260905224543 82 355 3.0 6.0 0.00 0.00 0.00 81 1009.3
20260905223042 83 355 5.0 9.0 0.00 0.00 0.00 79 1009.3
20260905221558 84 22 6.0 11.0 0.00 0.00 0.00 78 1009.2
20260905220041 84 19 8.0 13.0 0.00 0.00 0.00 76 1009.0
20260905214539 85 18 9.0 13.0 0.00 0.00 0.00 76 1008.9
20260905213039 85 26 7.0 11.0 0.00 0.00 0.00 77 1008.7
20260905211537 84 9 9.0 13.0 0.00 0.00 0.00 77 1008.6
20260905210035 84 36 9.0 16.0 0.00 0.00 0.00 78 1008.8
20260905204538 85 32 10.0 17.0 0.00 0.00 0.00 78 1008.8
20260905203036 85 355 8.0 13.0 0.00 0.00 0.00 78 1008.8
20260905201533 84 17 7.0 14.0 0.00 0.00 0.00 80 1009.0
20260905200032 87 17 9.0 13.0 0.00 0.00 0.00 73 1009.2
20260905194529 87 321 6.0 9.0 0.00 0.00 0.00 72 1009.0
20260905193034 86 300 5.0 10.0 0.00 0.00 0.00 72 1009.3
20260905191529 85 298 6.0 10.0 0.00 0.00 0.00 73 1009.4
20260905190030 87 324 5.0 12.0 0.00 0.00 0.00 71 1009.7
20260905184520 88 300 2.0 9.0 0.00 0.00 0.00 69 1009.8
20260905183013 87 317 5.0 9.0 0.00 0.00 0.00 70 1010.0
20260905181507 87 302 6.0 11.0 0.00 0.00 0.00 67 1010.1
20260905180008 87 214 2.0 8.0 0.00 0.00 0.00 70 1010.2
20260905174502 85 327 5.0 11.0 0.00 0.00 0.00 69 1010.3
20260905173119 84 176 4.0 11.0 0.00 0.00 0.00 72 1010.4
20260905171557 84 205 4.0 10.0 0.00 0.00 0.00 71 1010.6
20260905170053 83 207 6.0 12.0 0.00 0.00 0.00 72 1010.8
20260905164555 83 170 5.0 12.0 0.00 0.00 0.00 74 1011.0
20260905163049 82 242 5.0 10.0 0.00 0.00 0.00 73 1011.1
20260905161547 81 223 7.0 11.0 0.00 0.00 0.00 74 1011.2
20260905160055 81 251 4.0 9.0 0.00 0.00 0.00 74 1011.2
20260905154549 81 213 5.0 11.0 0.00 0.00 0.00 75 1011.1
20260905153040 79 209 4.0 9.0 0.00 0.00 0.00 77 1011.1
20260905151539 78 207 8.0 15.0 0.00 0.00 0.00 79 1011.1
20260905150041 77 201 3.0 10.0 0.00 0.00 0.00 79 1011.2
20260905144535 77 191 4.0 9.0 0.00 0.00 0.00 80 1011.4
20260905143032 76 213 6.0 10.0 0.00 0.00 0.00 82 1011.0
20260905141530 75 207 6.0 16.0 0.00 0.00 0.00 83 1011.0
20260905140028 74 196 8.0 11.0 0.00 0.00 0.00 84 1010.8
20260905134528 74 195 6.0 13.0 0.00 0.00 0.00 83 1010.7
20260905133027 74 192 8.0 13.0 0.00 0.00 0.00 85 1010.5
20260905131524 74 195 9.0 13.0 0.00 0.00 0.00 85 1010.5
20260905130021 73 191 10.0 14.0 0.00 0.00 0.00 87 1010.8
20260905124518 72 186 8.0 14.0 0.00 0.00 0.00 89 1010.8
20260905123013 71 178 7.0 13.0 0.00 0.00 0.00 91 1010.7
20260905121509 70 178 7.0 12.0 0.00 0.00 0.00 92 1010.8
20260905120019 70 175 6.0 10.0 0.00 0.00 0.00 92 1010.9
20260905114504 70 161 5.0 10.0 0.00 0.00 0.00 91 1010.9
20260905113001 70 158 5.0 12.0 0.00 0.00 0.00 91 1010.8
20260905111653 70 138 8.0 17.0 0.00 0.00 0.00 90 1010.5
20260905110056 70 152 8.0 14.0 0.00 0.00 0.00 90 1010.5
20260905104553 71 185 10.0 19.0 0.00 0.00 0.00 89 1010.4
20260905103053 72 140 11.0 17.0 0.00 0.00 0.00 90 1010.4
20260905101545 75 130 14.0 21.0 0.00 0.00 0.00 92 1010.4
20260905100043 76 117 3.0 9.0 0.00 0.00 0.00 95 1010.3
20260905094543 75 88 6.0 11.0 0.00 0.00 0.00 95 1010.2
20260905093042 75 215 0.0 2.0 0.00 0.00 0.00 93 1009.8
20260905091539 75 215 3.0 5.0 0.00 0.00 0.00 94 1009.7
20260905090039 76 225 1.0 3.0 0.00 0.00 0.00 92 1009.7
20260905084535 76 285 2.0 3.0 0.00 0.00 0.00 91 1009.7
20260905083033 76 286 0.0 1.0 0.00 0.00 0.00 91 1009.6
20260905081533 77 286 0.0 2.0 0.00 0.00 0.00 91 1009.5
20260905080034 77 286 0.0 4.0 0.00 0.00 0.00 91 1009.5
20260905074531 77 292 3.0 5.0 0.00 0.00 0.00 91 1009.6